TimeEDT,TemperatureF,Dew PointF,Humidity,Sea Level PressureIn,VisibilityMPH,Wind Direction,Wind SpeedMPH,Gust SpeedMPH,PrecipitationIn,Events,Conditions,WindDirDegrees,DateUTC
12:15 AM,64.4,-9999,N/A,30.02,10.0,South,3.5,-,N/A,,Clear,180,2014-03-23 04:15:00
12:35 AM,64.4,-9999,N/A,30.01,10.0,Calm,Calm,-,N/A,,Clear,0,2014-03-23 04:35:00
12:55 AM,62.6,-9999,N/A,30.01,7.0,South,3.5,-,N/A,,Clear,190,2014-03-23 04:55:00
1:15 AM,62.6,-9999,N/A,30.00,7.0,Calm,Calm,-,N/A,,Clear,0,2014-03-23 05:15:00
1:35 AM,60.8,-9999,N/A,30.00,7.0,South,3.5,-,N/A,,Clear,190,2014-03-23 05:35:00
1:55 AM,62.6,-9999,N/A,29.98,7.0,South,3.5,-,N/A,,Clear,190,2014-03-23 05:55:00
2:15 AM,60.8,-9999,N/A,29.97,4.0,Calm,Calm,-,N/A,,Clear,0,2014-03-23 06:15:00
2:35 AM,59.0,-9999,N/A,29.98,0.5,Calm,Calm,-,N/A,,Unknown,0,2014-03-23 06:35:00
2:55 AM,59.0,-9999,N/A,29.97,1.0,Calm,Calm,-,N/A,,Unknown,0,2014-03-23 06:55:00
3:15 AM,57.2,-9999,N/A,29.97,0.2,Calm,Calm,-,N/A,,Overcast,0,2014-03-23 07:15:00
3:35 AM,57.2,-9999,N/A,29.96,0.2,Calm,Calm,-,N/A,,Overcast,0,2014-03-23 07:35:00
3:55 AM,60.8,-9999,N/A,29.96,0.2,SW,3.5,-,N/A,,Overcast,230,2014-03-23 07:55:00
4:35 AM,60.8,-9999,N/A,29.95,0.2,Calm,Calm,-,N/A,,Overcast,0,2014-03-23 08:35:00
4:55 AM,60.8,-9999,N/A,29.95,0.2,WSW,3.5,-,N/A,,Overcast,240,2014-03-23 08:55:00
5:15 AM,60.8,-9999,N/A,29.95,0.5,WSW,4.6,-,N/A,,Overcast,250,2014-03-23 09:15:00
5:35 AM,60.8,-9999,N/A,29.95,0.8,Calm,Calm,-,N/A,,Overcast,0,2014-03-23 09:35:00
5:55 AM,60.8,-9999,N/A,29.95,0.8,SW,3.5,-,N/A,,Overcast,220,2014-03-23 09:55:00
6:15 AM,60.8,-9999,N/A,29.95,1.2,WSW,4.6,-,N/A,,Overcast,250,2014-03-23 10:15:00
6:35 AM,60.8,-9999,N/A,29.95,1.0,Calm,Calm,-,N/A,,Overcast,0,2014-03-23 10:35:00
6:55 AM,60.8,-9999,N/A,29.95,1.0,SW,3.5,-,N/A,,Overcast,230,2014-03-23 10:55:00
7:15 AM,60.8,-9999,N/A,29.95,1.2,Calm,Calm,-,N/A,,Overcast,0,2014-03-23 11:15:00
7:35 AM,60.8,-9999,N/A,29.95,2.5,Calm,Calm,-,N/A,,Overcast,0,2014-03-23 11:35:00
7:55 AM,60.8,-9999,N/A,29.96,2.0,Calm,Calm,-,N/A,,Overcast,0,2014-03-23 11:55:00
8:15 AM,60.8,-9999,N/A,29.96,1.2,Calm,Calm,-,N/A,,Overcast,0,2014-03-23 12:15:00
8:35 AM,60.8,-9999,N/A,29.97,2.5,West,3.5,-,N/A,,Overcast,270,2014-03-23 12:35:00
8:55 AM,60.8,-9999,N/A,29.96,3.0,Calm,Calm,-,N/A,,Overcast,0,2014-03-23 12:55:00
9:15 AM,60.8,-9999,N/A,29.97,3.0,WSW,3.5,-,N/A,,Overcast,240,2014-03-23 13:15:00
9:35 AM,60.8,-9999,N/A,29.96,4.0,SSW,3.5,-,N/A,,Overcast,210,2014-03-23 13:35:00
9:55 AM,62.6,-9999,N/A,29.96,5.0,WSW,3.5,-,N/A,,Mostly Cloudy,240,2014-03-23 13:55:00
10:15 AM,62.6,-9999,N/A,29.96,7.0,SW,4.6,-,N/A,,Scattered Clouds,220,2014-03-23 14:15:00
10:35 AM,64.4,-9999,N/A,29.96,10.0,SW,3.5,-,N/A,,Clear,220,2014-03-23 14:35:00
10:55 AM,68.0,64.4,88,29.96,10.0,Calm,Calm,-,N/A,,Clear,0,2014-03-23 14:55:00
11:15 AM,69.8,59.0,68,29.96,10.0,Calm,Calm,-,N/A,,Clear,0,2014-03-23 15:15:00
11:35 AM,69.8,51.8,53,29.95,10.0,Calm,Calm,-,N/A,,Clear,0,2014-03-23 15:35:00
11:55 AM,69.8,53.6,56,29.96,10.0,SSW,3.5,-,N/A,,Clear,210,2014-03-23 15:55:00
12:15 PM,69.8,55.4,60,29.94,10.0,South,3.5,-,N/A,,Clear,190,2014-03-23 16:15:00
12:35 PM,71.6,55.4,57,29.94,10.0,SSW,3.5,-,N/A,,Clear,200,2014-03-23 16:35:00
12:55 PM,71.6,55.4,57,29.93,10.0,SSW,3.5,-,N/A,,Clear,200,2014-03-23 16:55:00
1:15 PM,71.6,55.4,57,29.93,10.0,WSW,5.8,-,N/A,,Clear,240,2014-03-23 17:15:00
1:35 PM,71.6,55.4,57,29.92,10.0,SSW,4.6,-,N/A,,Clear,200,2014-03-23 17:35:00
1:55 PM,73.4,55.4,53,29.92,10.0,SW,6.9,-,N/A,,Clear,230,2014-03-23 17:55:00
2:15 PM,73.4,55.4,53,29.91,10.0,WSW,5.8,-,N/A,,Scattered Clouds,240,2014-03-23 18:15:00
2:35 PM,71.6,59.0,64,29.91,10.0,NW,9.2,18.4,N/A,,Mostly Cloudy,310,2014-03-23 18:35:00
2:55 PM,71.6,57.2,60,29.91,10.0,NNW,15.0,21.9,N/A,,Scattered Clouds,330,2014-03-23 18:55:00
3:15 PM,69.8,53.6,56,29.90,10.0,NW,11.5,-,N/A,,Scattered Clouds,320,2014-03-23 19:15:00
3:35 PM,69.8,51.8,53,29.90,10.0,NW,6.9,-,N/A,,Mostly Cloudy,310,2014-03-23 19:35:00
3:55 PM,71.6,50.0,46,29.89,10.0,WNW,6.9,-,N/A,,Scattered Clouds,300,2014-03-23 19:55:00
4:15 PM,69.8,50.0,49,29.89,10.0,WNW,6.9,-,N/A,,Mostly Cloudy,290,2014-03-23 20:15:00
4:35 PM,69.8,50.0,49,29.89,10.0,West,6.9,-,N/A,,Mostly Cloudy,270,2014-03-23 20:35:00
4:55 PM,69.8,50.0,49,29.89,10.0,West,5.8,-,N/A,,Overcast,280,2014-03-23 20:55:00
5:15 PM,69.8,50.0,49,29.89,10.0,North,11.5,-,N/A,,Mostly Cloudy,350,2014-03-23 21:15:00
5:35 PM,68.0,48.2,49,29.89,10.0,North,11.5,-,N/A,,Scattered Clouds,360,2014-03-23 21:35:00
5:55 PM,68.0,48.2,49,29.90,10.0,North,10.4,-,N/A,,Scattered Clouds,350,2014-03-23 21:55:00
6:15 PM,64.4,42.8,45,29.92,10.0,North,16.1,20.7,N/A,,Mostly Cloudy,350,2014-03-23 22:15:00
6:35 PM,62.6,41.0,45,29.95,10.0,North,15.0,-,N/A,,Overcast,360,2014-03-23 22:35:00
6:55 PM,60.8,44.6,55,29.96,10.0,North,15.0,21.9,N/A,,Overcast,10,2014-03-23 22:55:00
7:15 PM,59.0,32.0,36,29.97,10.0,North,15.0,21.9,N/A,,Overcast,360,2014-03-23 23:15:00
7:35 PM,57.2,41.0,55,29.99,10.0,North,16.1,21.9,N/A,,Overcast,360,2014-03-23 23:35:00
7:55 PM,55.4,42.8,63,30.00,10.0,North,18.4,24.2,N/A,,Overcast,360,2014-03-23 23:55:00
8:15 PM,53.6,44.6,72,30.02,10.0,North,18.4,24.2,N/A,,Overcast,360,2014-03-24 00:15:00
8:35 PM,51.8,33.8,50,30.04,10.0,North,18.4,24.2,N/A,,Overcast,360,2014-03-24 00:35:00
8:55 PM,51.8,32.0,47,30.04,10.0,NNE,8.1,16.1,N/A,,Overcast,30,2014-03-24 00:55:00
9:15 PM,51.8,30.2,44,30.05,10.0,North,9.2,-,N/A,,Overcast,10,2014-03-24 01:15:00
9:35 PM,51.8,30.2,44,30.06,10.0,North,9.2,-,N/A,,Overcast,360,2014-03-24 01:35:00
9:55 PM,51.8,28.4,41,30.06,10.0,North,4.6,-,N/A,,Overcast,10,2014-03-24 01:55:00
10:15 PM,50.0,41.0,71,30.08,10.0,North,4.6,-,N/A,,Mostly Cloudy,360,2014-03-24 02:15:00
10:35 PM,50.0,41.0,71,30.09,10.0,North,10.4,-,N/A,,Mostly Cloudy,10,2014-03-24 02:35:00
10:55 PM,50.0,32.0,50,30.09,10.0,North,11.5,16.1,N/A,,Overcast,10,2014-03-24 02:55:00
11:15 PM,50.0,37.4,62,30.10,10.0,North,9.2,-,N/A,,Mostly Cloudy,10,2014-03-24 03:15:00
11:35 PM,50.0,42.8,76,30.10,10.0,North,8.1,-,N/A,,Overcast,10,2014-03-24 03:35:00
11:55 PM,50.0,42.8,76,30.11,10.0,North,8.1,-,N/A,,Mostly Cloudy,10,2014-03-24 03:55:00